User: anonymous   Login
Location: Fort Wayne
(41.1310°N, 85.1290°W)
Time: 05:07:44
(UTC-05:00)
Language:

Cosmos 1000 Rocket - Orbit

View from above orbital plane
View from above orbital plane
View from above satellite
View from above satellite

Ground track
Ground track

The orbit data is extracted from the following two-line orbital elements,

1 10777U 78034B   14324.87526200  .00000093  00000-0  78928-4 0  3958
2 10777 082.9437 209.1780 0025079 310.7257 097.6321 13.77319890841089
Epoch (UTC): 20 November 2014 21:00:22
Eccentricity: 0.0025079
inclination: 82.9437°
perigee height: 955 km
apogee height: 992 km
right ascension of ascending node: 209.1780°
argument of perigee: 310.7257°
revolutions per day: 13.77319890
mean anomaly at epoch: 97.6321°
orbit number at epoch: 84108

The dashed part of the orbit path shows where the satellite is in the earth's shadow,  

DLR